Simultaneous Nadir Overpasses (SNOs) Predictions

Prediction of SNOs between AQUA and METOP-A Satellite Orbit:

Table of predicted SNOs for the next 14.0 days since TLE Epoch: 6/22/2018
Index Date (AQUA) Time (AQUA) Lat,Lon (AQUA) SZA (AQUA ) Date (METOP-A) Time (METOP-A) Lat,Lon (METOP-A) SZA (METOP-A ) Distance(km) Time Diff (sec)
1 06/23/2018 22:44:00 74.39,-167.88 51.04 06/23/2018 22:42:47 74.37,-167.84 51.03 2.57 73
2 06/23/2018 23:33:27 -74.44, -0.37 128.90 06/23/2018 23:33:27 -74.43, -0.34 128.91 1.34 0
3 06/24/2018 00:22:55 74.49, 167.16 51.15 06/24/2018 00:24:06 74.49, 167.14 51.14 0.87 71
4 06/26/2018 18:18:15 74.38,-101.43 51.12 06/26/2018 18:17:04 74.37,-101.41 51.12 1.06 71
5 06/26/2018 19:07:42 -74.43, 66.10 128.83 06/26/2018 19:07:44 -74.44, 66.09 128.82 1.62 2
6 06/26/2018 19:57:10 74.48,-126.39 51.23 06/26/2018 19:58:23 74.49,-126.44 51.23 2.20 73
7 06/29/2018 13:52:29 74.38, -34.99 51.25 06/29/2018 13:51:20 74.38, -35.00 51.26 0.45 69
8 06/29/2018 14:41:57 -74.47, 132.43 128.65 06/29/2018 14:42:00 -74.45, 132.52 128.67 3.38 3
9 06/29/2018 15:31:25 74.53, -60.07 51.42 06/29/2018 15:32:38 74.55, -59.90 51.42 5.46 73
10 07/02/2018 09:26:44 74.39, 31.44 51.45 07/02/2018 09:25:37 74.38, 31.42 51.46 0.79 67
11 07/02/2018 10:16:12 -74.47,-161.12 128.46 07/02/2018 10:16:17 -74.46,-161.06 128.47 2.25 5
12 07/02/2018 11:05:42 74.64, 6.10 51.73 07/02/2018 11:06:53 74.65, 6.77 51.70 19.81 71
13 07/05/2018 05:00:59 74.39, 97.85 51.70 07/05/2018 04:59:54 74.38, 97.83 51.70 1.52 65
14 07/05/2018 05:50:27 -74.47, -94.69 128.22 07/05/2018 05:50:34 -74.46, -94.64 128.23 1.82 7




NCC Satellite Simultaneous Nadir Overpasses (SNOs) Prediction Service
